FW7585 Weather Reports


Display with metric or nautical units.
time (UTC)temp
F
wind
direction
speed
MPH
gust
MPH
rain 1hr
in
rain 24hr
in
rain mn
in
humidity
%
barometer
mb
20260503202003 61 253 2.0 8.0 0.00 0.00 0.00 66 1014.2
20260503201538 61 237 1.0 8.0 0.00 0.00 0.00 66 1013.3
20260503201003 62 266 2.0 8.0 0.00 0.00 0.00 66 1014.1
20260503200047 61 0 2.0 8.0 0.00 0.00 0.00 64 1013.1
20260503200003 61 314 3.0 8.0 0.00 0.00 0.00 65 1013.9
20260503195003 61 322 2.0 7.0 0.00 0.00 0.00 66 1013.9
20260503194601 61 277 1.0 5.0 0.00 0.00 0.00 65 1013.1
20260503194003 61 258 1.0 5.0 0.00 0.00 0.00 66 1014.0
20260503193042 61 0 0.0 7.0 0.00 0.00 0.00 67 1013.2
20260503193024 61 349 1.0 7.0 0.00 0.00 0.00 68 1014.1
20260503192003 61 329 2.0 8.0 0.00 0.00 0.00 67 1014.1
20260503191543 61 304 1.0 6.0 0.00 0.00 0.00 66 1013.2
20260503191003 61 307 1.0 6.0 0.00 0.00 0.00 65 1014.0
20260503190046 61 0 1.0 7.0 0.00 0.00 0.00 64 1013.2
20260503190024 61 274 1.0 7.0 0.00 0.00 0.00 64 1014.0
20260503185003 62 273 1.0 7.0 0.00 0.00 0.00 63 1013.9
20260503184537 61 330 0.0 7.0 0.00 0.00 0.00 65 1013.2
20260503184003 61 284 1.0 7.0 0.00 0.00 0.00 64 1014.1
20260503183051 60 0 0.0 4.0 0.00 0.00 0.00 66 1013.1
20260503183003 60 258 1.0 4.0 0.00 0.00 0.00 66 1014.0
20260503182024 60 335 3.0 8.0 0.00 0.00 0.00 67 1013.9
20260503181544 59 302 3.0 6.0 0.00 0.00 0.00 66 1013.1
20260503181004 60 309 1.0 4.0 0.00 0.00 0.00 68 1014.0
20260503180056 59 359 1.0 7.0 0.00 0.00 0.00 69 1013.2
20260503180003 60 331 1.0 7.0 0.00 0.00 0.00 69 1014.0
20260503175003 59 333 3.0 7.0 0.00 0.00 0.00 70 1013.8
20260503174542 58 314 2.0 6.0 0.00 0.00 0.00 70 1013.0
20260503174024 59 274 1.0 5.0 0.00 0.00 0.00 73 1013.9
20260503173113 58 200 0.0 5.0 0.00 0.00 0.00 72 1013.0
20260503173003 59 249 1.0 5.0 0.00 0.00 0.00 73 1013.8
20260503172003 58 310 1.0 7.0 0.00 0.00 0.00 73 1013.8
20260503171546 58 0 1.0 4.0 0.00 0.00 0.00 73 1013.1
20260503171024 58 0 0.0 0.0 0.00 0.00 0.00 76 1014.0
20260503151003 54 0 0.0 0.0 0.00 0.00 0.00 89 1013.5
20260503131024 53 0 0.0 0.0 0.00 0.00 0.00 89 1012.3
20260503081550 53 0 0.0 0.0 0.00 0.00 0.00 84 1012.1
20260503081003 54 0 0.0 0.0 0.00 0.00 0.00 84 1012.9
20260503072003 54 0 0.0 0.0 0.00 0.00 0.00 85 1013.1
20260503071545 53 0 0.0 0.0 0.00 0.00 0.00 85 1012.3
20260503071003 54 0 0.0 0.0 0.00 0.00 0.00 85 1013.1
20260503055003 54 323 0.0 5.0 0.00 0.00 0.00 84 1013.4
20260503054543 53 325 0.0 1.0 0.00 0.00 0.00 83 1012.5
20260503054003 54 334 0.0 4.0 0.00 0.00 0.00 84 1013.4
20260503053042 53 360 1.0 5.0 0.00 0.00 0.00 84 1012.5
20260503053003 54 345 0.0 5.0 0.00 0.00 0.00 84 1013.4
20260503052024 54 329 1.0 4.0 0.00 0.00 0.00 84 1013.4
20260503051540 53 0 0.0 5.0 0.00 0.00 0.00 83 1012.6
20260503051003 54 336 1.0 5.0 0.00 0.00 0.00 83 1013.4
20260503050038 53 0 1.0 6.0 0.00 0.00 0.00 82 1012.6
20260503050025 54 339 1.0 6.0 0.00 0.00 0.00 83 1013.5
20260503045003 54 320 0.0 5.0 0.00 0.00 0.00 84 1013.5
20260503044542 54 0 0.0 3.0 0.00 0.00 0.00 83 1012.6
20260503044003 54 310 0.0 3.0 0.00 0.00 0.00 84 1013.4
20260503043044 54 0 0.0 8.0 0.00 0.00 0.00 83 1012.6
20260503043004 54 330 1.0 8.0 0.00 0.00 0.00 84 1013.4
20260503042003 54 336 1.0 6.0 0.00 0.00 0.00 83 1013.2
20260503041545 54 0 2.0 6.0 0.00 0.00 0.00 83 1012.3
20260503041025 54 338 1.0 6.0 0.00 0.00 0.00 83 1013.2
20260503040040 54 0 0.0 4.0 0.00 0.00 0.00 82 1012.1
20260503040004 54 330 0.0 3.0 0.00 0.00 0.00 82 1013.1
20260503035003 54 337 2.0 8.0 0.00 0.00 0.00 81 1013.0
20260503034537 54 338 2.0 8.0 0.00 0.00 0.00 81 1012.1
20260503034003 54 336 2.0 8.0 0.00 0.00 0.00 81 1012.9
20260503033045 54 355 3.0 9.0 0.00 0.00 0.00 81 1012.1
20260503033003 54 332 3.0 9.0 0.00 0.00 0.00 82 1012.9
20260503032025 54 329 2.0 6.0 0.00 0.00 0.00 82 1012.7
20260503031553 54 323 1.0 11.0 0.00 0.00 0.00 82 1011.9
20260503031003 54 339 4.0 11.0 0.00 0.00 0.00 82 1012.6
20260503030047 54 330 5.0 12.0 0.00 0.00 0.00 81 1011.7
20260503030003 54 328 4.0 12.0 0.00 0.00 0.00 81 1012.4
20260503025003 54 330 4.0 11.0 0.00 0.00 0.00 82 1012.5
20260503024547 54 255 3.0 8.0 0.00 0.00 0.00 81 1011.5
20260503024003 55 329 4.0 11.0 0.00 0.00 0.00 81 1012.4
20260503023039 54 359 3.0 13.0 0.00 0.00 0.00 80 1011.3
20260503023003 55 328 4.0 13.0 0.00 0.00 0.00 81 1012.2
20260503022003 55 326 4.0 9.0 0.00 0.00 0.00 80 1012.3
20260503021540 55 262 4.0 9.0 0.00 0.00 0.00 79 1011.4
20260503021003 55 327 4.0 10.0 0.00 0.00 0.00 79 1012.4
20260503020041 55 271 3.0 11.0 0.00 0.00 0.00 77 1011.6
20260503020003 56 324 4.0 10.0 0.00 0.00 0.00 78 1012.4
20260503015003 56 329 5.0 11.0 0.00 0.00 0.00 77 1012.4
20260503014537 56 320 4.0 11.0 0.00 0.00 0.00 76 1011.6
20260503014003 57 323 5.0 11.0 0.00 0.00 0.00 76 1012.4
20260503013044 57 348 4.0 9.0 0.00 0.00 0.00 75 1011.6
20260503013003 57 298 4.0 9.0 0.00 0.00 0.00 76 1012.4
20260503012003 58 312 4.0 10.0 0.00 0.00 0.00 76 1012.4
20260503011553 57 281 3.0 10.0 0.00 0.00 0.00 75 1011.5
20260503011004 58 303 3.0 8.0 0.00 0.00 0.00 75 1012.4
20260503010040 58 295 3.0 9.0 0.00 0.00 0.00 73 1011.5
20260503010003 59 329 4.0 9.0 0.00 0.00 0.00 74 1012.3
20260503005024 59 323 4.0 9.0 0.00 0.00 0.00 74 1012.2
20260503004544 59 255 4.0 9.0 0.00 0.00 0.00 73 1011.4
20260503004003 59 313 4.0 9.0 0.00 0.00 0.00 74 1012.5
20260503003044 58 322 4.0 11.0 0.00 0.00 0.00 74 1011.7
20260503003003 59 322 5.0 11.0 0.00 0.00 0.00 75 1012.6
20260503002024 59 317 5.0 13.0 0.00 0.00 0.00 74 1012.5
20260503001543 59 11 5.0 11.0 0.00 0.00 0.00 73 1011.6
20260503001024 60 314 4.0 10.0 0.00 0.00 0.00 73 1012.5
20260503000058 60 1 4.0 12.0 0.00 0.00 0.00 71 1011.8
20260503000003 61 306 5.0 12.0 0.00 0.00 0.00 72 1012.6
20260502235024 61 319 4.0 10.0 0.00 0.00 0.00 72 1012.5
20260502234546 61 328 4.0 13.0 0.00 0.00 0.00 71 1011.6
20260502234003 62 325 5.0 13.0 0.00 0.00 0.00 72 1012.6
20260502233040 62 327 5.0 11.0 0.00 0.00 0.00 69 1011.8
20260502233003 62 318 4.0 11.0 0.00 0.00 0.00 70 1012.7
20260502232003 62 321 4.0 10.0 0.00 0.00 0.00 71 1012.6
20260502231547 62 278 3.0 12.0 0.00 0.00 0.00 71 1011.9
20260502231003 62 333 5.0 12.0 0.00 0.00 0.00 70 1012.8
20260502230046 62 337 3.0 10.0 0.00 0.00 0.00 70 1012.2
20260502230003 62 327 4.0 10.0 0.00 0.00 0.00 70 1013.0
20260502225003 62 334 5.0 12.0 0.00 0.00 0.00 70 1013.1
20260502224554 62 268 5.0 12.0 0.00 0.00 0.00 69 1012.4
20260502224003 63 335 5.0 12.0 0.00 0.00 0.00 69 1013.3
20260502223045 63 260 4.0 10.0 0.00 0.00 0.00 68 1012.4
20260502223003 64 326 4.0 10.0 0.00 0.00 0.00 68 1013.2
20260502222003 63 321 3.0 8.0 0.00 0.00 0.00 68 1013.5
20260502221542 63 360 3.0 8.0 0.00 0.00 0.00 68 1012.9
20260502221003 64 318 4.0 10.0 0.00 0.00 0.00 68 1013.7
20260502220048 63 349 4.0 13.0 0.00 0.00 0.00 68 1012.9
20260502220003 63 338 4.0 11.0 0.00 0.00 0.00 69 1013.8
20260502215003 63 317 4.0 13.0 0.00 0.00 0.00 70 1013.8
20260502214539 62 278 3.0 10.0 0.00 0.00 0.00 70 1013.0
20260502214024 62 322 4.0 13.0 0.00 0.00 0.00 70 1013.8
20260502213037 62 352 3.0 10.0 0.00 0.00 0.00 71 1013.0
20260502213024 62 332 4.0 10.0 0.00 0.00 0.00 72 1013.9
20260502212003 62 333 5.0 14.0 0.00 0.00 0.00 72 1013.9
20260502211544 61 360 5.0 12.0 0.00 0.00 0.00 71 1013.1
20260502211003 62 329 4.0 12.0 0.00 0.00 0.00 72 1014.0
20260502210043 61 248 4.0 12.0 0.00 0.00 0.00 73 1013.3
20260502210003 62 329 4.0 12.0 0.00 0.00 0.00 73 1014.1
20260502205003 61 308 3.0 9.0 0.00 0.00 0.00 74 1014.2
20260502204545 60 359 2.0 9.0 0.00 0.00 0.00 73 1013.5
20260502204003 61 256 4.0 10.0 0.00 0.00 0.00 73 1014.3
20260502203038 61 335 3.0 10.0 0.00 0.00 0.00 73 1013.7
20260502203003 61 322 4.0 9.0 0.00 0.00 0.00 75 1014.5